Regional Weather Roundup
Issued by NWS

Home | Current Version | Previous Version | Graphics & Text | Print | Product List | Glossary Off
Versions: 1 2 3 4 5 6 7 8 9 10 11 12 13 14 15 16 17 18 19 20 21 22 23 24 25 26 27 28 29 30 31 32 33 34 35 36 37 38 39 40 41 42 43 44 45 46 47 48 49 50

000
ASUS43 KTOP 240308
RWRKS

WEATHER ROUNDUP FOR KANSAS
NATIONAL WEATHER SERVICE GOODLAND KS
900 PM CST THU NOV 23 2017

NOTE:  "FAIR" INDICATES FEW OR NO CLOUDS BELOW 12,000 FEET WITH NO
SIGNIFICANT WEATHER AND/OR OBSTRUCTIONS TO VISIBILITY.

KSZ001>006-013>018-027>032-041>047-240400-
NORTHWEST KANSAS

CITY           SKY/WX    TMP DP  RH WIND       PRES   REMARKS
GOODLAND       CLOUDY    56  36  47 SW15      29.90F
HAYS           PTCLDY    53  40  61 SW10      29.88F
HILL CITY      PTCLDY    56  40  55 SW8       29.85F
RUSSELL        PTCLDY    54  41  61 S14       29.85F
$$

KSZ061>065-074>080-084>089-240400-
SOUTHWEST KANSAS

CITY           SKY/WX    TMP DP  RH WIND       PRES   REMARKS
DODGE CITY     CLOUDY    55  38  52 SW7       29.94S
ELKHART        CLOUDY    58  40  52 SW14      29.98F
GARDEN CITY    PTCLDY    52  37  56 SW8       29.93F
GREAT BEND     CLOUDY    53  39  59 SW10      29.90F
LIBERAL        CLOUDY    51  38  60 SW9       29.97S
PRATT          CLOUDY    52  37  57 S10       29.93F
$$

KSZ066>073-081>083-090>101-240400-
SOUTHEAST KANSAS

CITY           SKY/WX    TMP DP  RH WIND       PRES   REMARKS
CHANUTE        CLOUDY    50  32  50 S8        29.96F
COFFEYVILLE    CLEAR     49  31  49 S5        29.97F
HUTCHINSON     CLOUDY    52  39  61 S7        29.91F
MEDICINE LODGE   N/A     52  37  56 CALM      29.93F
NEWTON         CLOUDY    51  35  54 S10       29.92F
PARSONS        CLOUDY    47  32  56 CALM      29.98S
WICHITA INTL   CLEAR     49  37  63 S9        29.93F
WICHITA JABRA  CLEAR     54  37  52 S10       29.93F
WICHITA MCCONL CLEAR     51  35  53 SW10      29.93F
WINFIELD       CLOUDY    50  35  56 S5        29.96F
$$

KSZ007>012-019>026-033>040-048>060-102>105-240400-
NORTHEAST KANSAS

CITY           SKY/WX    TMP DP  RH WIND       PRES   REMARKS
CONCORDIA      CLOUDY    60  40  47 S18       29.83F
EMPORIA        CLOUDY    48  35  60 S9        29.93S
LAWRENCE       PTCLDY    47  37  68 E6        29.92F
MANHATTAN      CLOUDY    48  38  68 CALM      29.88F
MARYSVILLE     CLOUDY    55  39  54 S7        29.84F
OLATHE IND     CLOUDY    47  36  65 S5        29.94S
OLATHE EXE     CLOUDY    47  36  65 S8        29.93S
SALINA         CLOUDY    58  40  51 S9        29.87F
TOPEKA BILLARD PTCLDY    52  38  58 S3        29.89F
TOPEKA FORBES  PTCLDY    55  37  50 S9        29.90F
$$




USA.gov is the U.S. government's official web portal to all federal, state and local government web resources and services.